Погода в Гандинагаре

Индия     23°14′14″N   72°39′39″E
темп.,
°C
ветер,
м/с
пор.,
м/с
влажн.,
%
обл.,
%
осадки,
мм/ч
давл.,
гПа
погр.,
м
20 января, чт
чт2023:30+18сз33430 0.0 101432
02:30+17зсз33405 0.0 101220
05:30+16зсз22400 0.0 101114
08:30+18з25530 0.0 1013143
11:30+26з57480 0.0 1013936
14:30+30зсз79360 0.0 10091501
17:30+28з57380 0.0 1008833
20:30+20зсз46640 0.0 101078
21 января, пт
пт2123:30+19сз34700 0.0 101154
02:30+18зсз22720 0.0 101019
05:30+17з22800 0.0 101015
08:30+19зюз12880 0.0 1012117
11:30+27зюз44530 0.0 10131092
14:30+30з67390 0.0 10091957
17:30+28з68440 0.0 10081223
20:30+22з33610 0.0 101038
22 января, сб
сб2223:30+20зюз410710 0.0 1010215
02:30+18з411910 0.0 1009307
05:30+18зюз412966 0.2 1008371
08:30+20зюз49915 0.1 1009567
11:30+25з812440 0.1 10091686
14:30+27з913260 0.0 10052227
17:30+25з710290 0.0 10052134
20:30+19з714360 0.0 1008391
23 января, вс
вс2323:30+16з512530 0.0 1009331
02:30+12з34670 0.0 100868
05:30+11з22710 0.0 100916
08:30+14ююз12590 0.0 101193
11:30+21юз22380 0.0 10121058
14:30+24зюз34280 0.0 10082084
17:30+23з45300 0.0 1008635
20:30+17сз44430 0.0 101152
24 января, пн
пн2423:30+14ссз33500 0.0 101242
02:30+13ссв34540 0.0 101156
05:30+12св22590 0.0 101221
08:30+14всв23520 0.0 1014108
11:30+22всв54320 0.0 10141471
14:30+25св33240 0.0 10111952
17:30+24ссв34230 0.0 1011224
20:30+16с23320 0.0 101321